Location: Quaker Farms
(41.4276°N, 73.1557°W)
Time: 02:14:51
(UTC+00:00)

Altair - Pass Details

Date: 16 June 2021
Orbit: 1501 x 1682 km, 47.2° (Epoch: 23 July)

Event Time Altitude Azimuth Distance (km) Brightness Sun altitude
Rises 01:29:52 0° 297° (WNW) 4,863 11.8 -9.9°
Reaches altitude 10° 01:33:02 10° 294° (WNW) 3,894 10.9 -10.3°
Maximum altitude 01:42:45 58° 219° (SW) 1,908 8.0 -11.6°
Enters shadow 01:51:15 15° 146° (SE) 3,545 8.7 -12.7°
Drops below altitude 10° 01:52:34 10° 144° (SE) 3,935 - -12.9°
Sets 01:55:48 0° 140° (SE) 4,916 - -13.3°
